Temperature
18 18 19 19 19 18 17 17 17 18 18 18 18 18 19 20 20 20 20 20 21 21 20 20 20 19 19 19 18 18 18 17 17 17 16 16 16 15 15 15 15 14 14 14
18 18 18 18 19 18 18 18 17 17 18 18 19 19 19 19 20 20 20 21 21 21 20 20 20 19 19 19 18 18 17 17 17 17 16 16 16 15 15 15 15 14 14 14
17 17 19 18 18 18 18 18 18 18 18 18 17 17 18 19 20 20 21 21 21 21 21 20 20 19 19 19 18 18 17 17 17 16 16 16 15 15 15 15 14 14 14 14
16 18 18 18 18 18 18 18 17 17 17 17 18 18 19 20 20 21 21 21 21 21 20 20 20 19 19 19 18 18 17 17 17 16 16 16 15 15 15 15 14 14 14 13
15 17 17 18 19 18 18 19 18 17 17 18 18 19 19 20 21 21 21 21 21 21 20 20 19 19 19 18 18 18 17 17 17 16 16 16 15 15 15 14 14 14 14 13
14 17 17 18 19 19 19 19 19 18 18 18 18 17 17 20 20 21 20 20 20 20 20 19 19 19 18 18 18 18 17 17 16 16 16 16 15 15 14 14 14 13 13 13
14 16 16 17 18 19 19 18 20 19 19 18 18 18 20 20 20 20 20 20 20 20 19 19 19 18 18 18 17 17 17 16 16 16 16 15 15 15 14 14 13 13 13 13
13 15 16 18 17 17 18 20 20 20 20 20 20 20 20 20 20 20 19 19 19 19 19 18 18 18 18 18 17 17 16 16 16 16 15 15 15 14 14 13 13 13 13 13
14 16 17 17 18 20 20 20 21 21 20 20 20 20 20 19 19 19 19 19 18 18 18 18 17 17 17 17 17 16 16 16 16 15 15 15 14 14 14 13 13 13 12 12
13 14 16 18 19 20 20 20 21 20 20 20 20 19 19 19 19 18 18 18 18 17 17 17 17 17 16 16 16 16 16 15 15 15 14 14 14 13 13 13 13 12 12 12
13 14 16 18 19 20 20 20 20 20 20 20 19 19 19 18 18 18 17 17 17 17 17 16 16 16 16 15 15 15 15 14 14 14 14 13 13 13 13 12 12 12 12 11
15 17 16 18 20 20 20 20 20 19 19 19 19 19 18 18 17 17 17 16 16 16 16 16 15 15 15 15 14 14 14 14 13 13 13 13 13 12 12 12 12 11 11 11
18 19 18 19 19 19 19 19 19 19 19 18 18 18 18 17 17 16 16 16 16 15 15 15 15 14 14 14 14 13 13 13 13 13 12 12 12 12 12 11 11 11 11 10
18 18 17 18 18 18 18 18 18 18 18 18 17 17 17 16 16 16 15 15 15 15 14 14 14 14 13 13 13 13 13 12 12 12 12 11 11 11 11 11 11 10 10 10
17 17 17 17 17 17 17 17 17 17 17 17 16 16 16 16 15 15 15 14 14 14 14 13 13 13 12 12 12 12 12 12 11 11 11 11 11 10 10 10 10 10 10 9
16 16 16 16 17 17 17 17 17 16 16 16 16 15 15 15 15 14 14 13 13 13 13 13 12 12 12 12 11 11 11 11 11 10 10 10 10 10 9 9 9 9 9 9
15 15 15 16 16 16 16 16 16 16 15 15 15 14 14 14 14 13 13 13 12 12 12 12 12 11 11 11 11 10 10 10 10 10 9 9 9 9 9 8 8 8 8 8
15 15 15 15 15 15 15 15 15 15 15 14 14 14 13 13 13 13 12 12 12 11 11 11 11 11 10 10 10 10 9 9 9 9 9 8 8 8 8 7 7 7 7 7
14 14 15 15 15 15 15 14 14 14 14 13 13 13 13 12 12 12 12 11 11 11 11 10 10 10 10 10 9 9 9 9 8 8 8 7 7 7 7 7 7 6 6 6
14 14 14 14 14 14 14 14 14 13 13 13 13 12 12 12 11 11 11 11 10 10 10 10 10 9 9 9 9 8 8 8 8 7 7 7 7 7 6 6 6 6 5 5
13 13 13 13 13 13 13 13 13 13 12 12 12 12 11 11 11 10 10 10 10 9 9 9 9 9 8 8 8 8 8 7 7 7 7 6 6 6 6 5 5 5 5 4
12 12 12 12 12 12 12 12 12 12 11 11 11 11 11 10 10 10 10 9 9 9 9 8 8 8 8 8 7 7 7 7 7 6 6 6 5 5 5 5 4 4 4 4
11 11 11 11 11 11 11 11 11 11 11 11 10 10 10 10 9 9 9 9 8 8 8 8 7 7 7 7 7 6 6 6 6 5 5 5 4 4 4 4 4 3 3 3
10 10 10 10 10 10 10 10 10 10 10 10 9 9 9 9 9 8 8 8 8 7 7 7 7 6 6 6 6 6 5 5 5 4 4 4 4 4 3 3 3 3 2 2
10 10 10 9 9 9 9 9 9 9 9 8 8 8 8 8 8 8 8 7 7 7 6 6 6 6 5 5 5 5 5 4 4 4 4 3 3 3 3 2 2 2 2 2
9 9 9 9 9 9 8 8 8 8 8 8 7 7 7 7 7 7 7 6 6 6 6 5 5 5 5 5 4 4 4 4 3 3 3 3 2 2 2 2 2 1 1 1
8 8 8 8 8 8 8 8 7 7 7 7 7 7 6 6 6 6 6 5 5 5 5 4 4 4 4 4 3 3 3 3 3 3 2 2 2 2 1 1 1 1 1 0
Wind_Speed
4 3 3 4 4 6 7 7 7 7 7 10 8 6 5 3 3 4 5 6 7 7 7 7 7 8 8 8 7 8 8 8 8 7 6 6 5 5 4 4 4 4 3 2
2 2 2 2 5 5 6 5 6 5 7 8 5 2 1 2 3 4 5 6 7 7 7 8 8 8 8 8 8 8 8 9 7 6 6 6 6 5 5 4 4 3 4 3
2 4 2 3 6 6 5 5 7 7 9 4 2 2 3 4 4 5 6 6 7 7 8 9 9 9 9 9 8 8 8 8 7 7 7 7 6 6 6 5 4 4 4 4
1 2 2 7 3 5 4 5 6 6 6 4 4 2 1 2 4 5 5 5 6 6 6 6 6 6 6 6 7 8 8 7 7 7 7 6 6 6 6 4 5 5 5 5
4 2 5 7 3 4 4 4 5 6 6 3 2 2 4 2 2 5 5 4 5 5 6 6 6 6 6 6 6 7 7 8 8 8 8 7 7 7 5 5 5 5 4 5
4 4 5 7 4 1 3 4 5 5 5 3 4 2 4 4 1 1 0 1 2 3 4 5 4 6 7 6 6 7 8 8 7 8 9 9 8 6 4 5 5 5 5 5
5 5 7 7 4 3 4 7 4 4 5 6 6 6 3 1 1 1 2 2 3 5 5 4 5 7 7 6 7 7 6 5 6 7 8 7 6 5 4 4 4 4 4 4
5 4 8 4 4 6 7 3 2 3 4 6 5 2 1 1 1 2 2 3 4 4 3 3 5 7 6 5 5 3 4 5 5 5 5 5 6 4 4 5 4 4 3 4
8 7 5 3 6 5 3 3 3 3 3 5 4 3 2 1 1 1 2 2 3 4 4 3 3 5 5 4 2 4 4 4 4 4 4 4 5 5 3 4 4 4 4 4
3 6 5 5 5 4 4 5 4 4 4 6 5 4 3 2 1 2 2 2 3 4 4 2 2 3 3 2 4 5 4 3 3 3 3 3 3 4 4 5 4 4 4 5
4 6 5 5 5 4 3 3 2 1 3 6 6 4 4 3 2 1 1 1 3 4 3 2 2 1 1 3 5 5 4 3 3 3 3 2 2 3 4 5 6 6 6 5
8 8 6 6 5 3 2 3 3 3 2 3 5 5 4 3 2 2 2 2 3 3 3 2 2 2 2 2 4 5 3 2 2 2 2 2 2 1 3 4 6 8 7 6
6 4 5 4 2 2 3 3 3 3 4 4 3 5 5 4 3 3 3 3 3 3 3 3 3 2 1 2 4 4 3 3 2 2 2 2 2 2 2 3 3 4 5 6
5 3 2 3 4 3 3 2 2 3 3 4 4 4 5 4 3 4 3 2 3 3 3 3 3 2 1 2 3 3 2 2 2 2 2 2 2 2 2 2 2 3 4 5
5 5 6 3 2 1 2 3 4 3 3 3 3 4 5 5 4 3 2 3 4 4 3 3 3 1 1 3 3 3 2 1 1 1 1 1 1 1 1 1 2 3 3 4
2 2 3 3 3 3 3 4 5 4 3 3 3 3 4 4 4 3 3 4 5 3 2 3 2 1 1 3 3 2 1 2 2 1 1 1 1 0 0 1 2 2 3 4
4 3 4 4 4 4 4 5 6 5 4 4 4 4 5 5 5 4 3 2 3 3 2 3 2 1 2 3 3 2 1 1 2 2 1 1 1 1 1 2 2 3 4 4
6 6 6 6 5 5 4 4 4 5 5 4 5 5 6 6 5 4 3 3 4 3 2 0 1 2 2 2 2 2 2 1 1 1 1 1 1 1 2 2 3 3 3 3
3 3 3 3 4 4 4 4 4 4 4 5 6 6 5 5 5 4 4 4 4 2 1 1 2 2 1 1 2 2 2 1 1 0 1 1 1 1 2 2 3 3 3 3
2 2 3 3 3 3 3 3 4 4 4 5 6 5 4 3 4 4 4 3 2 2 2 1 2 1 1 1 2 1 1 1 1 1 1 1 2 2 2 3 3 4 4 4
3 3 3 3 3 3 3 4 4 4 4 5 6 6 5 3 3 4 4 2 1 0 2 2 2 1 1 1 2 1 1 1 1 1 1 2 2 2 2 3 3 4 4 4
3 3 3 4 4 3 3 3 4 4 4 4 4 5 5 4 3 3 2 2 1 2 2 1 1 1 2 2 2 2 1 0 0 0 1 1 2 2 3 3 3 4 3 4
3 3 4 4 4 4 3 4 4 4 4 4 4 4 4 3 3 3 1 1 1 2 2 1 2 2 2 2 1 1 1 0 0 1 1 2 2 2 3 3 3 4 4 4
3 3 3 4 5 5 4 3 3 3 3 3 2 3 3 3 1 0 2 2 2 3 2 1 2 2 3 2 1 1 0 1 1 2 2 2 2 3 3 3 4 4 4 5
3 3 4 5 4 3 3 3 4 4 4 3 2 2 1 2 2 2 2 2 3 3 2 2 3 3 2 1 0 0 1 1 2 2 2 2 3 3 3 3 4 4 4 5
3 3 2 3 3 3 3 3 3 2 3 2 1 1 1 1 2 2 2 2 2 3 2 1 1 1 1 1 1 1 1 2 3 2 2 3 3 3 3 4 5 4 5 5
3 3 2 2 2 2 2 3 3 2 3 3 2 1 1 2 2 2 2 2 1 1 1 0 0 0 0 0 1 1 2 2 2 2 3 3 3 4 4 5 4 5 5 5
Wind_Direction
231 233 187 211 217 186 190 193 197 233 244 268 277 270 264 227 178 165 171 175 183 189 191 189 190 193 193 192 187 181 178 187 197 192 182 175 175 178 173 172 179 173 168 174
314 311 204 253 261 217 217 213 220 243 267 264 271 264 254 209 182 189 200 198 194 191 190 193 195 197 193 192 189 179 185 196 192 178 178 182 183 177 172 176 176 169 180 186
275 314 38 296 255 216 212 213 196 219 244 268 290 273 243 223 207 212 217 210 201 199 199 201 201 196 196 194 179 178 189 190 182 178 184 190 185 176 183 187 182 186 197 195
141 62 254 252 251 206 213 248 220 223 246 241 227 238 270 226 215 230 226 216 211 205 201 199 191 187 181 167 172 181 187 188 183 181 188 186 182 188 194 188 187 196 205 209
130 177 280 295 270 189 193 275 231 219 240 232 189 32 343 303 224 223 221 213 207 199 188 176 175 171 156 160 170 180 192 195 190 184 185 184 193 200 197 189 197 203 205 207
133 161 232 252 263 217 128 293 254 204 216 188 128 99 278 303 299 277 227 152 154 144 134 148 164 155 154 166 174 195 204 202 191 186 187 193 200 198 191 193 205 204 214 215
163 205 253 254 264 128 152 243 252 199 199 171 176 198 225 342 28 54 87 91 112 121 131 153 153 150 157 170 198 209 200 188 183 188 193 195 191 188 185 187 188 202 220 231
155 187 250 246 144 175 214 237 219 202 189 175 187 184 137 78 71 76 77 79 97 115 121 122 138 148 159 195 210 178 166 172 182 185 191 186 178 182 178 176 188 209 224 250
187 210 242 230 218 242 213 215 223 203 196 168 166 174 151 119 91 69 86 93 100 117 113 106 138 152 171 205 158 142 145 165 177 172 177 170 174 177 174 179 194 214 219 240
226 260 259 264 259 263 224 217 223 200 183 165 169 174 162 144 115 76 64 91 106 109 111 119 150 162 180 155 138 134 140 151 152 150 154 156 169 177 182 191 202 215 225 239
238 263 289 287 248 242 226 196 180 163 161 167 160 161 157 148 143 125 103 100 115 125 133 143 132 113 88 120 132 130 132 136 141 147 157 164 181 197 202 210 205 209 222 225
221 222 201 240 249 214 183 189 180 152 128 143 155 160 148 146 147 134 127 121 119 122 125 123 112 96 79 110 131 132 130 136 150 153 159 166 179 268 268 245 248 239 236 230
223 221 201 234 254 221 199 194 179 161 161 153 145 147 141 138 135 123 114 118 139 147 140 128 116 105 93 115 127 132 145 157 160 161 169 176 181 197 277 312 306 280 269 262
217 183 226 235 232 227 187 169 124 109 120 136 137 128 127 127 124 124 134 150 140 125 116 117 115 115 129 125 123 127 135 146 154 174 177 185 197 209 214 237 295 309 307 297
236 213 216 222 201 171 149 132 121 118 118 114 127 134 137 139 145 151 140 120 108 101 104 111 113 116 116 125 125 129 129 136 149 150 155 172 182 186 217 245 262 285 308 312
236 202 188 187 197 192 164 157 159 171 161 149 143 144 142 139 132 117 110 121 121 128 137 129 142 200 130 126 122 117 116 109 106 115 117 121 130 158 245 265 274 279 282 286
186 209 210 209 207 200 194 188 180 177 166 161 160 142 126 118 109 103 98 104 121 136 145 149 173 151 127 135 135 136 119 99 95 104 138 170 193 221 235 241 255 270 274 278
204 211 206 198 197 196 193 177 167 167 170 168 148 136 135 138 144 146 135 111 96 72 55 146 150 120 119 136 145 143 135 135 143 168 197 223 250 253 254 259 267 275 286 294
190 193 188 183 180 172 172 171 169 165 155 148 146 148 148 149 148 143 131 121 121 125 278 289 97 100 115 147 128 136 140 145 146 238 240 259 276 272 266 268 274 276 279 286
120 125 126 125 122 135 148 151 142 135 139 140 134 129 128 136 138 134 126 128 188 209 207 151 117 112 131 151 123 133 146 160 187 245 257 253 263 273 274 274 275 278 278 276
107 108 111 114 107 105 123 134 134 135 134 136 140 146 146 141 133 132 127 129 289 228 116 110 109 133 144 124 106 114 134 151 187 240 268 271 274 277 281 284 285 283 281 282
131 125 123 120 115 102 93 105 118 123 121 121 125 129 127 124 121 112 126 176 193 127 102 105 118 118 115 103 108 118 125 143 220 253 278 284 282 284 286 288 289 290 289 290
135 135 133 133 132 122 94 92 108 120 126 133 139 144 147 151 150 143 160 235 144 117 101 121 117 104 93 89 100 112 114 122 276 275 274 277 276 280 284 287 289 292 293 295
130 128 123 118 112 105 97 87 92 103 111 116 123 140 142 132 106 142 155 144 124 105 99 98 80 73 75 80 88 90 285 273 275 274 280 285 283 283 283 284 289 291 290 293
127 121 119 121 121 129 133 117 98 95 96 91 80 77 101 146 160 161 130 119 112 96 76 60 61 55 59 68 68 315 295 283 278 282 276 282 283 283 282 284 287 291 294 295
124 131 140 146 147 147 143 134 132 140 133 121 88 67 79 92 112 115 111 106 107 101 88 53 30 30 35 30 349 307 295 300 310 308 290 285 282 281 283 286 289 292 292 294
107 106 104 96 102 134 141 143 149 162 162 152 148 145 134 125 123 122 119 111 107 103 89 32 351 345 352 339 315 299 294 291 288 285 285 283 281 280 282 284 289 290 295 296
Height
1528 1525 1526 1527 1527 1530 1534 1535 1540 1534 1530 1521 1516 1514 1513 1513 1514 1516 1518 1520 1523 1525 1528 1531 1534 1537 1540 1544 1546 1549 1551 1553 1555 1557 1559 1560 1560 1561 1561 1562 1562 1562 1562 1562
1528 1525 1525 1527 1524 1525 1527 1528 1529 1528 1525 1514 1513 1512 1512 1512 1513 1514 1516 1518 1521 1523 1525 1528 1531 1534 1537 1540 1543 1545 1548 1550 1552 1554 1556 1557 1558 1559 1559 1559 1559 1559 1560 1560
1535 1529 1526 1532 1523 1521 1522 1520 1522 1524 1518 1511 1512 1511 1511 1511 1512 1513 1515 1516 1518 1521 1523 1525 1528 1531 1533 1536 1539 1542 1544 1547 1549 1551 1552 1554 1555 1556 1556 1556 1557 1557 1557 1557
1537 1534 1540 1527 1514 1514 1516 1515 1514 1513 1511 1510 1510 1510 1510 1510 1511 1511 1513 1514 1516 1518 1521 1523 1526 1529 1531 1534 1536 1538 1540 1543 1545 1547 1549 1551 1552 1552 1553 1553 1554 1554 1554 1554
1540 1540 1535 1521 1512 1513 1515 1514 1509 1509 1508 1508 1509 1509 1509 1509 1510 1510 1511 1513 1514 1516 1519 1521 1523 1526 1528 1530 1533 1535 1537 1539 1542 1544 1546 1547 1548 1549 1550 1550 1551 1551 1551 1551
1539 1538 1539 1521 1509 1508 1512 1516 1506 1505 1506 1507 1509 1514 1511 1509 1509 1509 1510 1511 1513 1515 1517 1519 1521 1523 1526 1527 1529 1531 1533 1536 1538 1540 1542 1543 1545 1546 1546 1547 1547 1548 1548 1548
1536 1536 1529 1511 1507 1509 1521 1517 1503 1503 1503 1505 1506 1508 1508 1508 1509 1509 1510 1511 1512 1513 1515 1517 1519 1521 1523 1524 1526 1529 1531 1533 1535 1537 1538 1540 1541 1542 1543 1543 1543 1544 1544 1544
1535 1535 1528 1505 1506 1509 1508 1502 1501 1501 1502 1503 1504 1506 1507 1507 1508 1509 1509 1510 1511 1512 1513 1515 1517 1518 1520 1522 1524 1526 1528 1530 1531 1533 1535 1536 1537 1538 1539 1539 1539 1540 1540 1540
1518 1516 1505 1502 1502 1501 1501 1500 1500 1500 1501 1502 1503 1505 1506 1507 1508 1508 1509 1509 1510 1511 1512 1513 1515 1516 1518 1520 1522 1523 1525 1526 1528 1529 1531 1532 1533 1534 1534 1535 1535 1535 1535 1535
1511 1505 1501 1500 1499 1499 1499 1499 1499 1499 1500 1501 1502 1503 1505 1506 1507 1507 1508 1508 1509 1510 1511 1512 1513 1515 1516 1518 1519 1521 1522 1523 1524 1526 1527 1528 1529 1530 1530 1531 1531 1531 1531 1531
1506 1501 1498 1497 1496 1497 1497 1497 1497 1498 1499 1499 1500 1502 1503 1504 1505 1506 1507 1507 1508 1508 1509 1510 1512 1513 1515 1516 1517 1518 1519 1520 1521 1522 1523 1524 1525 1526 1526 1527 1527 1527 1527 1526
1500 1494 1495 1494 1494 1495 1495 1495 1496 1496 1497 1498 1499 1500 1502 1503 1504 1505 1505 1506 1506 1507 1508 1509 1510 1511 1513 1514 1515 1515 1516 1517 1518 1519 1520 1521 1521 1522 1522 1523 1523 1523 1523 1522
1490 1490 1491 1491 1492 1492 1493 1493 1494 1495 1496 1497 1498 1499 1500 1501 1502 1503 1504 1504 1505 1505 1506 1507 1508 1509 1510 1511 1512 1513 1513 1514 1515 1515 1516 1517 1517 1518 1518 1519 1519 1519 1518 1517
1487 1488 1488 1488 1489 1490 1491 1491 1492 1493 1494 1495 1496 1497 1498 1499 1500 1501 1502 1502 1503 1504 1505 1506 1507 1507 1508 1509 1510 1510 1511 1511 1512 1512 1513 1513 1514 1514 1514 1514 1513 1513 1513 1513
1484 1485 1485 1486 1486 1487 1488 1489 1490 1491 1492 1493 1494 1496 1497 1497 1498 1499 1500 1501 1502 1502 1503 1504 1505 1505 1506 1507 1507 1508 1508 1508 1509 1509 1509 1510 1510 1510 1510 1509 1509 1508 1508 1507
1480 1481 1482 1482 1483 1484 1485 1486 1487 1488 1490 1491 1492 1494 1495 1496 1496 1497 1498 1499 1499 1500 1501 1502 1502 1503 1504 1504 1505 1505 1505 1505 1506 1506 1506 1506 1506 1506 1506 1505 1504 1504 1503 1502
1477 1477 1478 1479 1480 1481 1482 1483 1484 1486 1487 1489 1490 1492 1493 1494 1494 1495 1496 1497 1498 1499 1499 1500 1500 1501 1502 1502 1502 1502 1502 1502 1503 1503 1503 1502 1502 1502 1502 1501 1500 1499 1498 1498
1474 1474 1475 1476 1477 1478 1479 1480 1482 1484 1485 1486 1488 1489 1490 1491 1492 1493 1494 1495 1496 1497 1497 1498 1499 1499 1499 1499 1500 1500 1500 1500 1500 1499 1499 1499 1499 1499 1498 1497 1496 1495 1494 1493
1470 1471 1472 1473 1474 1475 1476 1478 1480 1481 1483 1484 1486 1487 1488 1489 1491 1492 1493 1493 1494 1494 1495 1496 1496 1496 1497 1497 1497 1497 1497 1497 1496 1496 1496 1496 1495 1495 1494 1493 1492 1491 1490 1488
1467 1468 1470 1471 1472 1473 1475 1476 1478 1479 1481 1482 1483 1485 1486 1488 1489 1490 1491 1491 1492 1493 1493 1494 1494 1494 1494 1495 1495 1494 1494 1493 1493 1493 1492 1492 1491 1490 1490 1489 1487 1486 1485 1483
1465 1467 1468 1469 1471 1472 1473 1475 1476 1478 1479 1481 1482 1483 1485 1486 1487 1488 1489 1489 1490 1491 1491 1492 1492 1492 1492 1492 1491 1491 1490 1490 1489 1489 1488 1487 1487 1486 1485 1484 1483 1482 1480 1478
1464 1465 1466 1468 1469 1471 1472 1473 1475 1476 1478 1479 1481 1482 1483 1484 1485 1486 1487 1488 1488 1489 1489 1489 1489 1489 1489 1489 1488 1488 1487 1487 1486 1485 1484 1483 1482 1482 1481 1479 1478 1477 1475 1473
1463 1464 1465 1467 1468 1469 1471 1472 1474 1475 1477 1478 1479 1481 1481 1482 1483 1484 1485 1486 1486 1487 1487 1487 1487 1486 1486 1486 1485 1484 1484 1483 1483 1482 1480 1480 1479 1477 1476 1475 1473 1472 1470 1468
1462 1463 1464 1466 1467 1468 1470 1471 1473 1474 1476 1477 1478 1479 1480 1481 1481 1482 1483 1484 1484 1485 1484 1484 1484 1484 1483 1483 1482 1481 1481 1480 1479 1478 1477 1476 1475 1473 1472 1470 1469 1467 1465 1463
1461 1462 1463 1465 1466 1467 1469 1470 1472 1473 1474 1476 1477 1478 1479 1480 1480 1480 1481 1481 1482 1482 1482 1482 1481 1481 1481 1480 1479 1478 1478 1477 1476 1475 1473 1472 1471 1469 1468 1466 1464 1462 1460 1458
1460 1461 1463 1464 1465 1467 1468 1469 1470 1472 1473 1474 1475 1476 1477 1478 1478 1478 1479 1479 1479 1479 1479 1479 1478 1478 1478 1477 1476 1476 1475 1473 1472 1471 1470 1468 1467 1465 1463 1461 1459 1457 1455 1453
1459 1460 1462 1463 1464 1466 1467 1468 1469 1470 1471 1472 1473 1474 1475 1476 1476 1476 1476 1476 1477 1476 1476 1476 1476 1475 1475 1474 1473 1472 1471 1470 1468 1467 1466 1464 1462 1461 1459 1456 1454 1452 1450 1447